When you browse on this site, cookies collect data to enhance your experience and personalize the content and advertising you see.
Visit our Privacy Policy to learn more. By continuing to use the site, you agree to this use of cookies and data.
  • In Hungary
  • List of Countries
  • For 7 days
  • Water Temperature
  • Satellite Maps
  • Weather Map
  • News
  • Weather Widgets
  • user-avatar
    Login

    Hourly Weather Polowce

    Today, 20 May, Monday

    Time Temperature Precipitation Wind Pressure Humidity
    00:00 +17°C° 0 mm 4 mps 742 mmHg 94%
    01:00 +17°C° 0 mm 4 mps 742 mmHg 95%
    02:00 +15°C° 0 mm 4 mps 742 mmHg 95%
    03:00 +15°C° 0 mm 4 mps 741 mmHg 96%
    04:00 +15°C° 0 mm 4 mps 741 mmHg 96%
    05:00 +15°C° 0 mm 5 mps 741 mmHg 96%
    06:00 +16°C° 0.1 mm 5 mps 741 mmHg 95%
    07:00 +16°C° 0.1 mm 6 mps 741 mmHg 93%
    08:00 +17°C° 0.1 mm 6 mps 741 mmHg 92%
    09:00 +19°C° 0.1 mm 6 mps 741 mmHg 91%
    10:00 +19°C° 0.1 mm 6 mps 741 mmHg 89%
    11:00 +20°C° 0.1 mm 7 mps 741 mmHg 88%
    12:00 +21°C° 0.2 mm 7 mps 741 mmHg 81%
    13:00 +23°C° 0.2 mm 7 mps 741 mmHg 75%
    14:00 +26°C° 0.2 mm 7 mps 741 mmHg 68%
    15:00 +24°C° 0.6 mm 7 mps 741 mmHg 73%
    16:00 +23°C° 0.6 mm 6 mps 741 mmHg 77%
    17:00 +22°C° 0.6 mm 6 mps 740 mmHg 82%
    18:00 +21°C° 0 mm 5 mps 740 mmHg 83%
    19:00 +21°C° 0 mm 5 mps 740 mmHg 83%
    20:00 +20°C° 0 mm 5 mps 740 mmHg 84%
    21:00 +19°C° 0.1 mm 4 mps 740 mmHg 86%
    22:00 +19°C° 0.1 mm 4 mps 740 mmHg 87%
    23:00 +18°C° 0.1 mm 4 mps 740 mmHg 89%

    Tomorrow, 21 May, Tuesday

    Time Temperature Precipitation Wind Pressure Humidity
    00:00 +18°C° 0 mm 4 mps 740 mmHg 91%
    01:00 +17°C° 0 mm 4 mps 740 mmHg 93%
    02:00 +17°C° 0 mm 4 mps 740 mmHg 95%
    03:00 +17°C° 0 mm 4 mps 740 mmHg 95%
    04:00 +17°C° 0 mm 4 mps 740 mmHg 96%
    05:00 +15°C° 0 mm 4 mps 740 mmHg 97%
    06:00 +17°C° 0 mm 4 mps 740 mmHg 95%
    07:00 +17°C° 0 mm 5 mps 740 mmHg 93%
    08:00 +19°C° 0 mm 5 mps 740 mmHg 90%
    09:00 +19°C° 0 mm 5 mps 740 mmHg 88%
    10:00 +19°C° 0 mm 6 mps 740 mmHg 86%
    11:00 +19°C° 0 mm 6 mps 740 mmHg 83%
    12:00 +19°C° 0.1 mm 6 mps 740 mmHg 84%
    13:00 +19°C° 0.1 mm 6 mps 739 mmHg 85%
    14:00 +19°C° 0.1 mm 5 mps 739 mmHg 86%
    15:00 +20°C° 0.1 mm 6 mps 739 mmHg 81%
    16:00 +20°C° 0.1 mm 7 mps 738 mmHg 77%
    17:00 +21°C° 0.1 mm 7 mps 738 mmHg 72%
    18:00 +18°C° 0.1 mm 7 mps 738 mmHg 74%
    19:00 +16°C° 0.1 mm 7 mps 738 mmHg 77%
    20:00 +15°C° 0.1 mm 7 mps 738 mmHg 79%
    21:00 +14°C° 0 mm 7 mps 738 mmHg 80%
    22:00 +14°C° 0 mm 7 mps 738 mmHg 81%
    23:00 +12°C° 0 mm 7 mps 738 mmHg 81%

    Day after tomorrow, 22 May, Wednesday

    Time Temperature Precipitation Wind Pressure Humidity
    00:00 +14°C° 0 mm 6 mps 738 mmHg 83%
    01:00 +14°C° 0 mm 6 mps 739 mmHg 84%
    02:00 +14°C° 0 mm 6 mps 739 mmHg 85%
    03:00 +14°C° 0 mm 6 mps 739 mmHg 87%
    04:00 +13°C° 0 mm 5 mps 739 mmHg 88%
    05:00 +13°C° 0 mm 5 mps 739 mmHg 90%
    06:00 +14°C° 0 mm 5 mps 739 mmHg 88%
    07:00 +15°C° 0 mm 5 mps 739 mmHg 85%
    08:00 +15°C° 0 mm 4 mps 740 mmHg 82%
    09:00 +17°C° 0.1 mm 5 mps 740 mmHg 77%
    10:00 +19°C° 0.1 mm 5 mps 740 mmHg 73%
    11:00 +20°C° 0.1 mm 5 mps 740 mmHg 68%
    12:00 +21°C° 0.1 mm 5 mps 740 mmHg 67%
    13:00 +21°C° 0.1 mm 6 mps 740 mmHg 65%
    14:00 +21°C° 0.1 mm 6 mps 740 mmHg 63%
    15:00 +21°C° 0.1 mm 5 mps 739 mmHg 64%
    16:00 +21°C° 0.1 mm 5 mps 739 mmHg 65%
    17:00 +21°C° 0.1 mm 5 mps 739 mmHg 65%
    18:00 +20°C° 0.1 mm 4 mps 739 mmHg 72%
    19:00 +19°C° 0.1 mm 3 mps 739 mmHg 78%
    20:00 +17°C° 0.1 mm 2 mps 739 mmHg 85%
    21:00 +16°C° 0 mm 2 mps 739 mmHg 88%
    22:00 +15°C° 0 mm 2 mps 739 mmHg 91%
    23:00 +14°C° 0 mm 2 mps 740 mmHg 94%

    23 May, Thursday

    Time Temperature Precipitation Wind Pressure Humidity
    00:00 +14°C° 0 mm 2 mps 739 mmHg 95%
    01:00 +13°C° 0 mm 2 mps 739 mmHg 95%
    02:00 +13°C° 0 mm 2 mps 739 mmHg 96%
    03:00 +13°C° 0 mm 2 mps 739 mmHg 96%
    04:00 +13°C° 0 mm 2 mps 739 mmHg 97%
    05:00 +13°C° 0 mm 2 mps 739 mmHg 97%
    06:00 +14°C° 0 mm 2 mps 740 mmHg 92%
    07:00 +16°C° 0 mm 2 mps 740 mmHg 87%
    08:00 +17°C° 0 mm 2 mps 740 mmHg 82%
    09:00 +18°C° 0.8 mm 2 mps 740 mmHg 79%
    10:00 +19°C° 0.8 mm 2 mps 740 mmHg 76%
    11:00 +20°C° 0.8 mm 2 mps 740 mmHg 74%
    12:00 +20°C° 2.4 mm 2 mps 740 mmHg 73%
    13:00 +21°C° 2.4 mm 2 mps 740 mmHg 73%
    14:00 +21°C° 2.4 mm 2 mps 739 mmHg 73%
    15:00 +21°C° 2.5 mm 2 mps 740 mmHg 75%
    16:00 +20°C° 2.5 mm 3 mps 740 mmHg 78%
    17:00 +20°C° 2.5 mm 4 mps 740 mmHg 80%
    18:00 +17°C° 1.5 mm 5 mps 740 mmHg 84%
    19:00 +16°C° 1.5 mm 6 mps 740 mmHg 88%
    20:00 +15°C° 1.5 mm 7 mps 740 mmHg 92%
    21:00 +14°C° 0.2 mm 7 mps 740 mmHg 92%
    22:00 +11°C° 0.2 mm 7 mps 741 mmHg 92%
    23:00 +10°C° 0.2 mm 6 mps 741 mmHg 92%

    24 May, Friday

    Time Temperature Precipitation Wind Pressure Humidity
    00:00 +9°C° 0.2 mm 6 mps 741 mmHg 91%
    01:00 +8°C° 0.2 mm 6 mps 741 mmHg 90%
    02:00 +7°C° 0.2 mm 5 mps 742 mmHg 90%
    03:00 +7°C° 0 mm 5 mps 742 mmHg 90%
    04:00 +7°C° 0 mm 5 mps 742 mmHg 90%
    05:00 +7°C° 0 mm 5 mps 742 mmHg 91%
    06:00 +8°C° 0 mm 5 mps 742 mmHg 88%
    07:00 +9°C° 0 mm 5 mps 742 mmHg 85%
    08:00 +10°C° 0 mm 5 mps 743 mmHg 83%
    09:00 +13°C° 0 mm 5 mps 743 mmHg 77%
    10:00 +14°C° 0 mm 5 mps 743 mmHg 71%
    11:00 +16°C° 0 mm 5 mps 743 mmHg 66%
    12:00 +16°C° 0 mm 5 mps 742 mmHg 64%
    13:00 +17°C° 0 mm 5 mps 742 mmHg 62%
    14:00 +19°C° 0 mm 5 mps 742 mmHg 60%
    15:00 +19°C° 0 mm 5 mps 742 mmHg 60%
    16:00 +19°C° 0 mm 5 mps 742 mmHg 60%
    17:00 +19°C° 0 mm 4 mps 742 mmHg 61%
    18:00 +17°C° 0 mm 4 mps 741 mmHg 67%
    19:00 +16°C° 0 mm 3 mps 741 mmHg 73%
    20:00 +15°C° 0 mm 2 mps 741 mmHg 80%
    21:00 +14°C° 0 mm 2 mps 741 mmHg 82%
    22:00 +13°C° 0 mm 1 mps 741 mmHg 84%
    23:00 +13°C° 0 mm 1 mps 741 mmHg 87%

    25 May, Saturday

    Time Temperature Precipitation Wind Pressure Humidity
    00:00 +12°C° 0 mm 1 mps 741 mmHg 88%
    01:00 +12°C° 0 mm 1 mps 741 mmHg 90%
    02:00 +11°C° 0 mm 1 mps 741 mmHg 92%
    03:00 +11°C° 0 mm 1 mps 741 mmHg 92%
    04:00 +11°C° 0 mm 1 mps 741 mmHg 93%
    05:00 +11°C° 0 mm 1 mps 741 mmHg 93%
    06:00 +12°C° 0 mm 2 mps 741 mmHg 87%
    07:00 +14°C° 0 mm 2 mps 741 mmHg 80%
    08:00 +16°C° 0 mm 2 mps 741 mmHg 74%
    09:00 +17°C° 0.2 mm 3 mps 741 mmHg 70%
    10:00 +18°C° 0.2 mm 3 mps 741 mmHg 66%
    11:00 +19°C° 0.2 mm 4 mps 741 mmHg 62%
    12:00 +20°C° 0.5 mm 4 mps 741 mmHg 63%
    13:00 +20°C° 0.5 mm 4 mps 741 mmHg 65%
    14:00 +20°C° 0.5 mm 5 mps 741 mmHg 66%
    15:00 +20°C° 0.2 mm 5 mps 741 mmHg 66%
    16:00 +20°C° 0.2 mm 5 mps 740 mmHg 66%
    17:00 +20°C° 0.2 mm 5 mps 740 mmHg 65%
    18:00 +18°C° 0.4 mm 4 mps 740 mmHg 73%
    19:00 +17°C° 0.4 mm 3 mps 741 mmHg 81%
    20:00 +14°C° 0.4 mm 3 mps 741 mmHg 89%
    21:00 +13°C° 0 mm 3 mps 741 mmHg 91%
    22:00 +12°C° 0 mm 3 mps 741 mmHg 92%
    23:00 +10°C° 0 mm 3 mps 742 mmHg 93%
    Show more